Terminal Aerodrome Forecast
Issued by NWS Twin Cities, MN

Home | Current Version | Previous Version | Text Only | Print | Product List | Glossary Off
Versions: 1 2 3 4 5 6 7 8 9 10 11 12 13 14 15 16 17 18 19 20 21 22 23 24 25 26 27 28 29

000
FTUS43 KMPX 221954 AAA
TAFMSP
TAF AMD
KMSP 221954Z 2220/2324 22010KT P6SM OVC012
     FM230000 21010KT P6SM SCT014 SCT100
     FM230800 20012KT P6SM BKN090
     FM231200 23012KT P6SM VCSH SCT020 OVC040 PROB30 2313/2317 -FZRA
      OVC020
     FM231800 25010KT P6SM SCT025 BKN050=

USA.gov is the U.S. government's official web portal to all federal, state and local government web resources and services.